This demonstration page uses our WeatherBlox Daily Observations layout. Learn more.

Left ArrowRight Arrow

40.92945, -100.16068

Hourly Observations for May 28, 2022

Temp ( °F °C ) Dew Point ( °F °C ) Humidity (%) Winds ( mph kmh ) Pressure ( in mb ) Visibility ( mi km ) Precip ( " mm )
12:15 am 00:15 Clear 74 23.3 55 12.5 51 51 S 12 19 29.64 1004 10 16 0.00 0.00
12:35 am 00:35 Clear 73 22.5 54 12.4 53 53 S 13 20 29.63 1003 10 16 0.00 0.00
12:55 am 00:55 Clear 72 22.3 55 12.5 54 54 SSE 10 17 29.63 1004 10 16 0.00 0.00
1:15 am 01:15 Clear 70 21.2 55 12.7 58 58 SSE 8 13 29.63 1003 10 16 0.00 0.00
1:35 am 01:35 Clear 69 20.5 55 12.8 61 61 SE 7 11 29.64 1004 10 16 0.00 0.00
1:55 am 01:55 Clear 69 20.4 55 12.8 62 62 ESE 5 7 29.64 1004 10 16 0.00 0.00
2:15 am 02:15 Clear 69 20.5 55 12.8 61 61 S 6 9 29.65 1004 10 16 0.00 0.00
2:35 am 02:35 Clear 68 19.9 55 13 65 65 S 6 9 29.64 1004 10 16 0.00 0.00
2:55 am 02:55 Clear 69 20.4 55 12.9 62 62 S 13 20 29.64 1004 10 16 0.00 0.00
3:15 am 03:15 Clear 67 19.7 55 13 65 65 SSE 9 15 29.63 1003 10 16 0.00 0.00
3:35 am 03:35 Clear 67 19.6 55 13 66 66 SSE 6 9 29.63 1003 10 16 0.00 0.00
3:55 am 03:55 Clear 67 19.5 55 12.9 66 66 S 8 13 29.61 1003 10 16 0.00 0.00
4:15 am 04:15 Clear 66 19 55 13 68 68 S 10 17 29.61 1003 10 16 0.00 0.00
4:35 am 04:35 Clear 67 19.3 55 12.6 65 65 SSW 7 11 29.61 1003 10 16 0.00 0.00
4:55 am 04:55 Clear 66 18.7 55 12.5 67 67 SSW 5 7 29.61 1003 10 16 0.00 0.00
5:15 am 05:15 Clear 63 17.3 54 12.3 73 73 Calm 29.63 1003 10 16 0.00 0.00
5:35 am 05:35 Clear 61 15.9 53 11.8 77 77 Calm 29.64 1004 10 16 0.00 0.00
5:55 am 05:55 Clear 59 15.2 53 11.7 80 80 Calm 29.63 1004 10 16 0.00 0.00
6:15 am 06:15 Sunny 62 16.8 53 11.8 73 73 Calm 29.62 1003 10 16 0.00 0.00
6:35 am 06:35 Sunny 60 15.4 52 11.2 76 76 N 5 7 29.64 1004 10 16 0.00 0.00
6:55 am 06:55 Sunny 59 15 54 12.1 83 83 NNE 3 6 29.65 1004 10 16 0.00 0.00
7:15 am 07:15 Sunny 59 15.1 55 12.6 85 85 Calm 29.65 1004 10 16 0.00 0.00
7:35 am 07:35 Sunny 62 16.4 57 13.7 84 84 Calm 29.64 1004 10 16 0.00 0.00
7:55 am 07:55 Sunny 63 17.4 58 14.4 83 83 Calm 29.64 1004 10 16 0.00 0.00
8:15 am 08:15 Sunny 67 19.2 58 14.5 74 74 ESE 3 6 29.62 1003 10 16 0.00 0.00
8:35 am 08:35 Sunny 69 20.5 57 14.1 67 67 SE 5 7 29.61 1003 10 16 0.00 0.00
8:55 am 08:55 Sunny 69 20.8 57 13.7 64 64 SSE 7 11 29.61 1003 10 16 0.00 0.00
9:15 am 09:15 Sunny 71 21.6 57 14 62 62 SSE 8 13 29.60 1002 10 16 0.00 0.00
9:35 am 09:35 Sunny 72 22.3 58 14.3 61 61 S 8 13 29.58 1002 10 16 0.00 0.00
9:55 am 09:55 Sunny 73 23 58 14.7 60 60 S 9 15 29.58 1002 10 16 0.00 0.00
10:15 am 10:15 Sunny 74 23.5 58 14.6 57 57 S 12 19 29.55 1001 10 16 0.00 0.00
10:35 am 10:35 Sunny 75 24.1 59 14.9 57 57 S 12 19 29.55 1001 10 16 0.00 0.00
10:55 am 10:55 Sunny 76 24.4 59 14.8 55 55 SSE 10 17 29.54 1000 10 16 0.00 0.00
11:15 am 11:15 Sunny 77 25 60 15.3 55 55 SSE 12 19 29.53 1000 10 16 0.00 0.00
11:35 am 11:35 Sunny 78 25.5 60 15.4 54 54 SE 10 17 29.53 1000 10 16 0.00 0.00
11:55 am 11:55 Sunny 78 25.7 59 15.1 52 52 SSE 9 15 29.52 1000 10 16 0.00 0.00
12:15 pm 12:15 Sunny 80 26.5 60 15.6 51 51 SSE 12 19 29.50 999 10 16 0.00 0.00
12:35 pm 12:35 Sunny 80 26.8 60 15.8 51 51 SSE 5 7 29.49 999 10 16 0.00 0.00
12:55 pm 12:55 Sunny 81 27.3 60 15.5 49 49 SSE 12 19 29.48 998 10 16 0.00 0.00
1:15 pm 13:15 Sunny 82 28 59 15.2 46 46 ESE 10 17 29.47 998 10 16 0.00 0.00
1:35 pm 13:35 Sunny 83 28.2 59 15.2 45 45 SSE 13 20 29.46 997 10 16 0.00 0.00
1:55 pm 13:55 Sunny 83 28.5 61 16.1 47 47 SSE 15 24 29.44 997 10 16 0.00 0.00
2:15 pm 14:15 Sunny 82 27.7 61 15.9 49 49 SSE 15 24 29.44 997 10 16 0.00 0.00
2:35 pm 14:35 Sunny 84 28.8 61 15.9 46 46 SSE 16 26 29.43 997 10 16 0.00 0.00
2:55 pm 14:55 Sunny 84 28.9 61 16 46 46 SSE 16 26 29.41 996 10 16 0.00 0.00
3:15 pm 15:15 Sunny 85 29.7 61 16.1 44 44 SE 16 26 29.39 995 10 16 0.00 0.00
3:35 pm 15:35 Sunny 86 30.1 60 15.4 41 41 SSE 16 26 29.38 995 10 16 0.00 0.00
3:55 pm 15:55 Sunny 86 30.1 59 14.8 39 39 SE 16 26 29.37 995 10 16 0.00 0.00
4:15 pm 16:15 Sunny 86 29.9 60 15.8 42 42 S 16 26 29.36 994 10 16 0.00 0.00
4:30 pm 16:30 Sunny 86 30.2 61 16.2 43 43 S 18 30 29.35 994 10 16 0.00 0.00
4:55 pm 16:55 Sunny 86 30 61 16.3 44 44 S 15 24 29.34 994 10 16 0.00 0.00
5:15 pm 17:15 Sunny 84 28.8 62 16.9 49 49 SSE 13 20 29.35 994 10 16 0.00 0.00
5:35 pm 17:35 Sunny 83 28.5 62 16.5 48 48 SSE 15 24 29.33 993 10 16 0.00 0.00
5:55 pm 17:55 Sunny 85 29.6 62 16.9 46 46 SSE 18 30 29.33 993 10 16 0.00 0.00
6:15 pm 18:15 Sunny 85 29.3 62 16.7 47 47 SSE 20 31 29.32 993 10 16 0.00 0.00
6:35 pm 18:35 Sunny 82 28 61 16.2 49 49 SSE 16 26 29.33 993 10 16 0.00 0.00
6:55 pm 18:55 Sunny 82 27.6 62 16.6 51 51 SE 15 24 29.32 993 10 16 0.00 0.00
7:15 pm 19:15 Sunny 81 27.2 61 16.3 51 51 SE 15 24 29.30 992 10 16 0.00 0.00
7:35 pm 19:35 Sunny 80 26.9 61 16.3 52 52 SE 15 24 29.31 992 10 16 0.00 0.00
7:55 pm 19:55 Sunny 80 26.6 61 16.3 53 53 SE 15 24 29.31 993 10 16 0.00 0.00
8:15 pm 20:15 Sunny 79 26.2 62 16.6 56 56 SE 16 26 29.31 993 10 16 0.00 0.00
8:35 pm 20:35 Sunny 79 26.1 62 16.8 57 57 SE 13 20 29.31 993 10 16 0.00 0.00
8:55 pm 20:55 Sunny 78 25.5 63 17.2 60 60 SE 14 22 29.32 993 10 16 0.00 0.00
9:15 pm 21:15 Clear 77 25 64 17.5 63 63 ESE 13 20 29.31 993 10 16 0.00 0.00
9:35 pm 21:35 Clear 76 24.6 64 17.8 66 66 SE 10 17 29.31 992 10 16 0.00 0.00
9:55 pm 21:55 Clear 76 24.3 65 18.1 68 68 SE 14 22 29.29 992 10 16 0.00 0.00
10:15 pm 22:15 Clear 75 24.1 65 18.3 70 70 SE 12 19 29.30 992 10 16 0.00 0.00
10:35 pm 22:35 Clear 76 24.2 65 18.3 70 70 SE 14 22 29.29 992 10 16 0.00 0.00
10:55 pm 22:55 Clear 76 24.3 65 18.2 69 69 SSE 13 20 29.29 992 10 16 0.00 0.00
11:15 pm 23:15 Clear 76 24.2 64 18 68 68 SSE 15 24 29.28 991 10 16 0.00 0.00
11:35 pm 23:35 Clear 75 24.1 64 18 69 69 SSE 17 28 29.28 992 10 16 0.00 0.00
11:55 pm 23:55 Clear 75 24 64 17.8 68 68 SSE 18 30 29.27 991 10 16 0.00 0.00

Powered by AerisWeather